ENT3MY LGKR-EPKT

Flight info

Callsign ENT3MY
Flight time 1h 45m
Altitude 36000
Route NIKRO M127 OVVER DCT ALELU DCT RISTU DCT PARAK DCT LITKU DCT REDSI DCT MEBAN
Aircraft B738/M-SDE2E3FGHIRWXY/LB1

Departure

Time 2026-05-05 20:26
Airport Corfu Ioannis Kapodistrias International Airport (LGKR)

Arrival

Time 2026-05-05 22:12
Airport Katowice Wojciech Korfanty International Airport (EPKT)
Time Latitude Longitude Altitude Speed Heading
2026-05-05 20:01 39.60782 19.91323 20 ft 0 kts 78°
2026-05-05 20:16 39.60781 19.91316 19 ft 2 kts 78°
2026-05-05 20:17 39.60777 19.91297 19 ft 2 kts 78°
2026-05-05 20:17 39.60776 19.91277 19 ft 2 kts 105°
2026-05-05 20:17 39.60783 19.91260 19 ft 2 kts 133°
2026-05-05 20:17 39.60795 19.91249 19 ft 1 kts 162°
2026-05-05 20:18 39.60801 19.91247 19 ft 1 kts 171°
2026-05-05 20:18 39.60804 19.91246 19 ft 0 kts 168°
2026-05-05 20:20 39.60787 19.91251 19 ft 7 kts 167°
2026-05-05 20:20 39.60688 19.91278 19 ft 19 kts 168°
2026-05-05 20:20 39.60603 19.91250 18 ft 11 kts 242°
2026-05-05 20:20 39.60553 19.91172 17 ft 11 kts 202°
2026-05-05 20:21 39.60480 19.91147 16 ft 11 kts 178°
2026-05-05 20:21 39.60381 19.91168 15 ft 18 kts 168°
2026-05-05 20:21 39.60230 19.91206 14 ft 25 kts 169°
2026-05-05 20:21 39.60037 19.91255 13 ft 28 kts 168°
2026-05-05 20:22 39.59847 19.91303 14 ft 26 kts 168°
2026-05-05 20:22 39.59671 19.91349 14 ft 24 kts 169°
2026-05-05 20:22 39.59507 19.91393 14 ft 23 kts 168°
2026-05-05 20:22 39.59355 19.91430 15 ft 21 kts 169°
2026-05-05 20:23 39.59225 19.91463 15 ft 14 kts 173°
2026-05-05 20:23 39.59170 19.91469 15 ft 6 kts 95°
2026-05-05 20:23 39.59203 19.91477 15 ft 6 kts 322°
2026-05-05 20:23 39.59232 19.91464 15 ft 0 kts 350°
2026-05-05 20:25 39.59261 19.91456 15 ft 14 kts 349°
2026-05-05 20:26 39.59649 19.91352 14 ft 97 kts 348°
2026-05-05 20:26 39.60558 19.91116 19 ft 165 kts 348°
2026-05-05 20:26 39.61739 19.90815 706 ft 174 kts 349°
2026-05-05 20:26 39.62878 19.90753 1532 ft 169 kts 13°
2026-05-05 20:27 39.63976 19.91479 2041 ft 182 kts 40°
2026-05-05 20:27 39.64832 19.92756 2544 ft 196 kts 57°
2026-05-05 20:27 39.65296 19.94457 2955 ft 217 kts 86°
2026-05-05 20:27 39.64981 19.96439 3511 ft 233 kts 116°
2026-05-05 20:28 39.63925 19.98113 4080 ft 250 kts 145°
2026-05-05 20:28 39.62328 19.98890 4934 ft 252 kts 176°
2026-05-05 20:28 39.60582 19.98745 5857 ft 251 kts 188°
2026-05-05 20:28 39.58866 19.98366 6670 ft 254 kts 189°
2026-05-05 20:29 39.57109 19.98009 7468 ft 258 kts 189°
2026-05-05 20:29 39.55322 19.97747 8238 ft 262 kts 182°
2026-05-05 20:29 39.53519 19.98065 8948 ft 269 kts 158°
2026-05-05 20:29 39.51928 19.99342 9735 ft 271 kts 142°
2026-05-05 20:30 39.50476 20.00908 10388 ft 278 kts 140°
2026-05-05 20:30 39.49003 20.02543 11062 ft 284 kts 136°
2026-05-05 20:30 39.47889 20.04731 11438 ft 301 kts 107°
2026-05-05 20:30 39.47741 20.07479 11845 ft 314 kts 77°
2026-05-05 20:31 39.48606 20.10085 12247 ft 325 kts 51°
2026-05-05 20:31 39.50293 20.12113 12607 ft 337 kts 30°
2026-05-05 20:31 39.52483 20.13282 12966 ft 347 kts
2026-05-05 20:31 39.54897 20.13447 13607 ft 350 kts 355°
2026-05-05 20:32 39.57318 20.13173 14286 ft 354 kts 351°
2026-05-05 20:32 39.59773 20.12794 15083 ft 355 kts 351°
2026-05-05 20:32 39.62247 20.12442 15781 ft 358 kts 352°
2026-05-05 20:32 39.64724 20.12154 16444 ft 361 kts 353°
2026-05-05 20:33 39.67213 20.11915 17129 ft 363 kts 353°
2026-05-05 20:33 39.69745 20.11648 17800 ft 366 kts 352°
2026-05-05 20:33 39.72292 20.11341 18472 ft 367 kts 351°
2026-05-05 20:33 39.74848 20.11016 19024 ft 373 kts 351°
2026-05-05 20:34 39.77432 20.10688 19712 ft 373 kts 351°
2026-05-05 20:34 39.80034 20.10362 20297 ft 377 kts 351°
2026-05-05 20:34 39.82645 20.10039 20897 ft 379 kts 351°
2026-05-05 20:34 39.85284 20.09717 21400 ft 384 kts 351°
2026-05-05 20:35 39.87926 20.09394 21975 ft 386 kts 351°
2026-05-05 20:35 39.90606 20.09068 22513 ft 389 kts 351°
2026-05-05 20:35 39.93304 20.08739 23057 ft 391 kts 350°
2026-05-05 20:35 39.96027 20.08410 23587 ft 394 kts 350°
2026-05-05 20:36 39.98766 20.08077 24079 ft 397 kts 350°
2026-05-05 20:36 40.01513 20.07742 24585 ft 400 kts 351°
2026-05-05 20:36 40.04316 20.07400 25081 ft 402 kts 350°
2026-05-05 20:36 40.07084 20.07062 25578 ft 404 kts 350°
2026-05-05 20:37 40.09899 20.06719 26042 ft 407 kts 350°
2026-05-05 20:37 40.12729 20.06372 26528 ft 409 kts 350°
2026-05-05 20:37 40.15575 20.06023 27001 ft 411 kts 350°
2026-05-05 20:37 40.18402 20.05677 27419 ft 414 kts 350°
2026-05-05 20:38 40.21285 20.05320 27834 ft 416 kts 350°
2026-05-05 20:38 40.24158 20.04965 28398 ft 415 kts 350°
2026-05-05 20:38 40.27068 20.04608 28821 ft 418 kts 350°
2026-05-05 20:38 40.29955 20.04258 29227 ft 420 kts 350°
2026-05-05 20:39 40.32851 20.03903 29627 ft 422 kts 350°
2026-05-05 20:39 40.35796 20.03534 30027 ft 425 kts 350°
2026-05-05 20:39 40.38756 20.03165 30446 ft 426 kts 350°
2026-05-05 20:39 40.41721 20.02797 30867 ft 427 kts 350°
2026-05-05 20:40 40.44687 20.02426 31241 ft 429 kts 350°
2026-05-05 20:40 40.47652 20.02055 31651 ft 430 kts 350°
2026-05-05 20:40 40.50647 20.01683 32047 ft 430 kts 350°
2026-05-05 20:40 40.53613 20.01317 32570 ft 428 kts 350°
2026-05-05 20:41 40.56567 20.00990 33195 ft 423 kts 351°
2026-05-05 20:41 40.59450 20.00738 33902 ft 416 kts 352°
2026-05-05 20:41 40.62304 20.00524 34589 ft 408 kts 353°
2026-05-05 20:41 40.65112 20.00319 35203 ft 403 kts 352°
2026-05-05 20:42 40.67919 20.00112 35559 ft 399 kts 352°
2026-05-05 20:42 40.70663 19.99905 35868 ft 398 kts 352°
2026-05-05 20:42 40.73449 19.99686 35999 ft 402 kts 352°
2026-05-05 20:43 40.79037 19.99234 36084 ft 403 kts 352°
2026-05-05 20:43 40.84613 19.98780 36082 ft 401 kts 352°
2026-05-05 20:44 40.90196 19.98326 36085 ft 400 kts 352°
2026-05-05 20:44 40.95749 19.97869 36073 ft 401 kts 352°
2026-05-05 20:45 41.04087 19.97188 36077 ft 404 kts 352°
2026-05-05 20:45 41.09705 19.96728 36079 ft 403 kts 352°
2026-05-05 20:46 41.15284 19.96266 36084 ft 403 kts 352°
2026-05-05 20:46 41.20903 19.95798 36084 ft 403 kts 352°
2026-05-05 20:47 41.26494 19.95333 36091 ft 406 kts 352°
2026-05-05 20:47 41.32143 19.94867 36095 ft 404 kts 352°
2026-05-05 20:48 41.37726 19.94404 36095 ft 406 kts 352°
2026-05-05 20:48 41.43402 19.93930 36096 ft 405 kts 352°
2026-05-05 20:49 41.49020 19.93462 36102 ft 407 kts 352°
2026-05-05 20:49 41.54677 19.92993 36101 ft 408 kts 352°
2026-05-05 20:50 41.60346 19.92510 36099 ft 408 kts 352°
2026-05-05 20:50 41.66036 19.92034 36099 ft 409 kts 352°
2026-05-05 20:51 41.71717 19.91559 36094 ft 407 kts 352°
2026-05-05 20:51 41.77378 19.91076 36188 ft 412 kts 352°
2026-05-05 20:52 41.83063 19.90595 36095 ft 406 kts 352°
2026-05-05 20:52 41.88747 19.90113 36098 ft 411 kts 352°
2026-05-05 20:53 41.94451 19.89629 36097 ft 409 kts 352°
2026-05-05 20:53 42.00121 19.89148 36098 ft 410 kts 352°
2026-05-05 20:54 42.05819 19.88663 36103 ft 411 kts 352°
2026-05-05 20:54 42.11505 19.88180 36116 ft 412 kts 352°
2026-05-05 20:55 42.17210 19.87697 36116 ft 411 kts 352°
2026-05-05 20:55 42.22905 19.87214 36119 ft 411 kts 352°
2026-05-05 20:56 42.28605 19.86724 36118 ft 410 kts 352°
2026-05-05 20:56 42.34266 19.86236 36123 ft 410 kts 352°
2026-05-05 20:57 42.39997 19.85745 36134 ft 410 kts 352°
2026-05-05 20:57 42.45698 19.85253 36146 ft 411 kts 352°
2026-05-05 20:58 42.51407 19.85145 36161 ft 416 kts 358°
2026-05-05 20:58 42.57197 19.85588 36158 ft 415 kts 359°
2026-05-05 20:59 42.62976 19.86105 36150 ft 415 kts 359°
2026-05-05 20:59 42.68735 19.86589 36042 ft 414 kts 359°
2026-05-05 21:00 42.74479 19.87043 36135 ft 419 kts 359°
2026-05-05 21:00 42.77415 19.87271 36243 ft 420 kts 359°
2026-05-05 21:00 42.80302 19.87495 36142 ft 414 kts 359°
2026-05-05 21:01 42.86062 19.87935 36126 ft 417 kts 359°
2026-05-05 21:01 42.91857 19.88372 36114 ft 416 kts 359°
2026-05-05 21:02 42.97631 19.88814 36105 ft 417 kts 359°
2026-05-05 21:02 43.03439 19.89255 36106 ft 419 kts 359°
2026-05-05 21:03 43.09243 19.89703 36099 ft 418 kts 359°
2026-05-05 21:03 43.15049 19.90147 36103 ft 418 kts 358°
2026-05-05 21:04 43.20816 19.90590 36100 ft 418 kts 359°
2026-05-05 21:04 43.26669 19.91044 36096 ft 418 kts 358°
2026-05-05 21:05 43.29602 19.91271 35891 ft 417 kts 359°
2026-05-05 21:05 43.32505 19.91497 36063 ft 418 kts 359°
2026-05-05 21:05 43.38364 19.91947 36096 ft 422 kts 358°
2026-05-05 21:06 43.44172 19.92401 36096 ft 419 kts 358°
2026-05-05 21:06 43.49992 19.92854 36098 ft 418 kts 359°
2026-05-05 21:07 43.55781 19.93298 36093 ft 419 kts 358°
2026-05-05 21:07 43.61624 19.93749 36072 ft 418 kts 359°
2026-05-05 21:08 43.67399 19.94200 36053 ft 418 kts 359°
2026-05-05 21:08 43.73268 19.94660 36042 ft 419 kts 359°
2026-05-05 21:09 43.79081 19.95117 36030 ft 420 kts 359°
2026-05-05 21:09 43.84881 19.95575 36031 ft 419 kts 359°
2026-05-05 21:10 43.90718 19.96028 36025 ft 419 kts 359°
2026-05-05 21:10 43.96543 19.96488 36022 ft 419 kts 359°
2026-05-05 21:11 44.02357 19.96949 36022 ft 420 kts 359°
2026-05-05 21:11 44.08176 19.97407 36002 ft 420 kts 358°
2026-05-05 21:12 44.14019 19.97869 36002 ft 420 kts 359°
2026-05-05 21:12 44.19886 19.98336 35991 ft 421 kts 359°
2026-05-05 21:13 44.25731 19.98801 35989 ft 422 kts 359°
2026-05-05 21:13 44.31587 19.99265 35980 ft 423 kts 359°
2026-05-05 21:14 44.37470 19.99734 35983 ft 423 kts 359°
2026-05-05 21:14 44.43325 20.00203 35971 ft 425 kts 359°
2026-05-05 21:15 44.49210 20.00682 35975 ft 423 kts 359°
2026-05-05 21:15 44.55136 20.01157 35971 ft 424 kts 359°
2026-05-05 21:16 44.61002 20.01624 35973 ft 424 kts 359°
2026-05-05 21:16 44.66923 20.02099 35965 ft 425 kts 360°
2026-05-05 21:17 44.72806 20.02574 35969 ft 426 kts 360°
2026-05-05 21:17 44.78758 20.03019 35969 ft 427 kts 359°
2026-05-05 21:18 44.84666 20.03292 35971 ft 427 kts 358°
2026-05-05 21:18 44.90630 20.03534 36267 ft 426 kts 358°
2026-05-05 21:19 44.93581 20.03657 36033 ft 427 kts 359°
2026-05-05 21:19 44.96538 20.03787 35823 ft 419 kts 359°
2026-05-05 21:19 44.99455 20.03919 35957 ft 420 kts 359°
2026-05-05 21:19 45.02373 20.04049 35974 ft 425 kts 359°
2026-05-05 21:20 45.08305 20.04316 35969 ft 428 kts 359°
2026-05-05 21:20 45.14265 20.04591 35972 ft 428 kts 359°
2026-05-05 21:21 45.20182 20.04867 35965 ft 428 kts 359°
2026-05-05 21:21 45.23189 20.05008 36257 ft 428 kts 359°
2026-05-05 21:21 45.26176 20.05148 36017 ft 429 kts 359°
2026-05-05 21:22 45.29123 20.05287 35760 ft 423 kts 359°
2026-05-05 21:22 45.32037 20.05424 35924 ft 423 kts 359°
2026-05-05 21:22 45.37997 20.05697 35957 ft 430 kts 359°
2026-05-05 21:23 45.43979 20.05974 35964 ft 429 kts 359°
2026-05-05 21:23 45.49927 20.06252 35962 ft 430 kts 359°
2026-05-05 21:24 45.55905 20.06535 35960 ft 431 kts 359°
2026-05-05 21:24 45.61901 20.06820 35959 ft 430 kts 359°
2026-05-05 21:25 45.67866 20.07102 35961 ft 430 kts 360°
2026-05-05 21:25 45.73836 20.07384 35957 ft 431 kts 359°
2026-05-05 21:26 45.79841 20.07669 35954 ft 431 kts 360°
2026-05-05 21:26 45.85882 20.07955 36025 ft 433 kts 360°
2026-05-05 21:27 45.88854 20.08097 35824 ft 425 kts
2026-05-05 21:27 45.91809 20.08239 36097 ft 428 kts 360°
2026-05-05 21:27 45.94787 20.08380 35742 ft 432 kts
2026-05-05 21:27 45.97810 20.08525 35868 ft 429 kts
2026-05-05 21:28 46.03786 20.08809 35929 ft 434 kts 360°
2026-05-05 21:28 46.09831 20.09098 35929 ft 432 kts
2026-05-05 21:29 46.15803 20.09208 35926 ft 431 kts 355°
2026-05-05 21:29 46.21754 20.08301 35923 ft 430 kts 350°
2026-05-05 21:30 46.27660 20.06942 35922 ft 430 kts 349°
2026-05-05 21:30 46.33540 20.05518 35922 ft 430 kts 349°
2026-05-05 21:31 46.39435 20.04109 35920 ft 430 kts 349°
2026-05-05 21:31 46.45340 20.02720 35919 ft 430 kts 349°
2026-05-05 21:32 46.51248 20.01338 35918 ft 430 kts 349°
2026-05-05 21:32 46.57151 19.99957 35917 ft 430 kts 349°
2026-05-05 21:33 46.63052 19.98571 35920 ft 430 kts 349°
2026-05-05 21:33 46.68967 19.97180 35923 ft 430 kts 349°
2026-05-05 21:34 46.74837 19.95801 35921 ft 430 kts 349°
2026-05-05 21:34 46.80725 19.94415 35921 ft 430 kts 349°
2026-05-05 21:35 46.86638 19.93016 35927 ft 430 kts 349°
2026-05-05 21:35 46.92544 19.91616 35932 ft 430 kts 349°
2026-05-05 21:36 46.98446 19.90214 35930 ft 430 kts 349°
2026-05-05 21:36 47.04341 19.88809 35931 ft 430 kts 349°
2026-05-05 21:37 47.10276 19.87393 35930 ft 431 kts 349°
2026-05-05 21:37 47.16201 19.85976 35928 ft 433 kts 349°
2026-05-05 21:38 47.22120 19.84556 35922 ft 432 kts 349°
2026-05-05 21:38 47.28058 19.83130 35917 ft 432 kts 349°
2026-05-05 21:39 47.33927 19.81718 35916 ft 432 kts 349°
2026-05-05 21:39 47.39903 19.80276 35914 ft 432 kts 349°
2026-05-05 21:40 47.45841 19.78840 35913 ft 433 kts 349°
2026-05-05 21:40 47.51770 19.77404 35913 ft 433 kts 349°
2026-05-05 21:41 47.57717 19.75958 35909 ft 434 kts 349°
2026-05-05 21:41 47.63650 19.74514 35906 ft 433 kts 349°
2026-05-05 21:42 47.69569 19.73070 35902 ft 433 kts 349°
2026-05-05 21:42 47.75539 19.71610 35898 ft 433 kts 349°
2026-05-05 21:43 47.81470 19.70155 35899 ft 434 kts 349°
2026-05-05 21:43 47.87429 19.68689 35893 ft 435 kts 349°
2026-05-05 21:44 47.93402 19.67221 35898 ft 436 kts 349°
2026-05-05 21:44 47.99372 19.65747 35906 ft 436 kts 349°
2026-05-05 21:45 48.05342 19.64267 35905 ft 436 kts 349°
2026-05-05 21:45 48.11296 19.62789 35910 ft 435 kts 349°
2026-05-05 21:46 48.17276 19.61301 35907 ft 435 kts 349°
2026-05-05 21:46 48.23266 19.60088 35902 ft 436 kts 355°
2026-05-05 21:47 48.29317 19.59928 35905 ft 438 kts 360°
2026-05-05 21:47 48.35400 19.60192 35904 ft 438 kts
2026-05-05 21:48 48.41516 19.60511 35909 ft 439 kts
2026-05-05 21:48 48.47584 19.60806 35911 ft 439 kts
2026-05-05 21:49 48.53703 19.61073 35915 ft 439 kts
2026-05-05 21:49 48.59761 19.61324 35914 ft 438 kts
2026-05-05 21:50 48.65833 19.61574 35916 ft 438 kts
2026-05-05 21:50 48.71968 19.61826 35917 ft 438 kts
2026-05-05 21:51 48.78018 19.62075 35919 ft 439 kts
2026-05-05 21:51 48.84134 19.62326 35700 ft 442 kts
2026-05-05 21:52 48.90284 19.62576 34487 ft 446 kts
2026-05-05 21:52 48.93358 19.62702 33910 ft 443 kts
2026-05-05 21:52 48.96416 19.62828 33346 ft 440 kts
2026-05-05 21:53 48.99508 19.62958 32771 ft 438 kts
2026-05-05 21:53 49.02534 19.63084 32207 ft 435 kts
2026-05-05 21:53 49.05539 19.63208 31643 ft 433 kts
2026-05-05 21:53 49.08526 19.63332 31079 ft 430 kts
2026-05-05 21:54 49.11480 19.63454 30526 ft 428 kts
2026-05-05 21:54 49.14441 19.63579 29960 ft 425 kts
2026-05-05 21:54 49.17378 19.63701 29407 ft 423 kts
2026-05-05 21:54 49.20289 19.63823 28855 ft 420 kts
2026-05-05 21:55 49.23226 19.63944 28299 ft 418 kts
2026-05-05 21:55 49.26083 19.64055 27758 ft 415 kts
2026-05-05 21:55 49.28980 19.64153 27200 ft 413 kts
2026-05-05 21:55 49.31839 19.64242 26648 ft 411 kts
2026-05-05 21:56 49.34647 19.64328 26109 ft 408 kts
2026-05-05 21:56 49.37488 19.64415 25563 ft 406 kts
2026-05-05 21:56 49.40293 19.64503 25022 ft 403 kts
2026-05-05 21:56 49.43093 19.64592 24480 ft 401 kts
2026-05-05 21:57 49.45868 19.64639 23928 ft 399 kts 358°
2026-05-05 21:57 49.48610 19.64446 23388 ft 396 kts 355°
2026-05-05 21:57 49.51342 19.64080 22860 ft 394 kts 354°
2026-05-05 21:57 49.54061 19.63647 22326 ft 392 kts 353°
2026-05-05 21:58 49.56773 19.63201 21796 ft 389 kts 353°
2026-05-05 21:58 49.59459 19.62765 21274 ft 387 kts 353°
2026-05-05 21:58 49.62110 19.62346 20757 ft 385 kts 353°
2026-05-05 21:58 49.64782 19.61937 20235 ft 383 kts 353°
2026-05-05 21:59 49.67419 19.61545 19711 ft 381 kts 354°
2026-05-05 21:59 49.70050 19.61158 19193 ft 379 kts 354°
2026-05-05 21:59 49.72642 19.60780 18677 ft 377 kts 354°
2026-05-05 21:59 49.75246 19.60402 18161 ft 375 kts 354°
2026-05-05 22:00 49.77858 19.60023 17645 ft 374 kts 354°
2026-05-05 22:00 49.80443 19.59648 17132 ft 372 kts 354°
2026-05-05 22:00 49.83004 19.59276 16622 ft 371 kts 354°
2026-05-05 22:00 49.85555 19.58905 16109 ft 369 kts 353°
2026-05-05 22:01 49.88086 19.58538 15598 ft 368 kts 353°
2026-05-05 22:01 49.90631 19.58169 15082 ft 366 kts 353°
2026-05-05 22:01 49.93149 19.57803 14591 ft 364 kts 353°
2026-05-05 22:01 49.95667 19.57437 14084 ft 362 kts 353°
2026-05-05 22:02 49.98130 19.57077 13590 ft 360 kts 353°
2026-05-05 22:02 50.00620 19.56714 13081 ft 358 kts 353°
2026-05-05 22:02 50.03073 19.56356 12556 ft 348 kts 353°
2026-05-05 22:02 50.05436 19.56013 12090 ft 336 kts 353°
2026-05-05 22:03 50.07700 19.55683 11649 ft 325 kts 352°
2026-05-05 22:03 50.09912 19.55360 11222 ft 316 kts 352°
2026-05-05 22:03 50.12109 19.55039 10785 ft 315 kts 352°
2026-05-05 22:03 50.14326 19.54708 10362 ft 325 kts 352°
2026-05-05 22:04 50.16585 19.54370 9903 ft 326 kts 352°
2026-05-05 22:04 50.18827 19.54042 9731 ft 315 kts 352°
2026-05-05 22:04 50.20980 19.53731 9501 ft 308 kts 352°
2026-05-05 22:04 50.23089 19.53420 9014 ft 311 kts 352°
2026-05-05 22:05 50.25245 19.53099 8596 ft 310 kts 352°
2026-05-05 22:05 50.27401 19.52779 8199 ft 309 kts 352°
2026-05-05 22:05 50.29538 19.52462 7805 ft 308 kts 352°
2026-05-05 22:05 50.31636 19.52152 7502 ft 303 kts 352°
2026-05-05 22:06 50.33728 19.51818 7162 ft 300 kts 348°
2026-05-05 22:06 50.35674 19.50724 6651 ft 296 kts 325°
2026-05-05 22:06 50.37344 19.48908 6240 ft 293 kts 317°
2026-05-05 22:06 50.38944 19.46992 5858 ft 292 kts 319°
2026-05-05 22:07 50.40580 19.45161 5588 ft 285 kts 321°
2026-05-05 22:07 50.42198 19.43492 5380 ft 271 kts 323°
2026-05-05 22:07 50.43764 19.41936 5130 ft 261 kts 323°
2026-05-05 22:07 50.45292 19.40425 4814 ft 253 kts 322°
2026-05-05 22:08 50.46640 19.38806 4559 ft 240 kts 308°
2026-05-05 22:08 50.47469 19.36682 4389 ft 218 kts 278°
2026-05-05 22:08 50.47610 19.34383 4078 ft 209 kts 261°
2026-05-05 22:08 50.47538 19.32118 3728 ft 205 kts 262°
2026-05-05 22:09 50.47531 19.29949 3505 ft 200 kts 264°
2026-05-05 22:09 50.47536 19.27771 3212 ft 197 kts 264°
2026-05-05 22:09 50.47539 19.25634 2939 ft 195 kts 264°
2026-05-05 22:09 50.47549 19.23534 2693 ft 183 kts 264°
2026-05-05 22:10 50.47559 19.21608 2423 ft 169 kts 264°
2026-05-05 22:10 50.47567 19.19884 2230 ft 156 kts 263°
2026-05-05 22:10 50.47570 19.18176 2022 ft 155 kts 264°
2026-05-05 22:10 50.47574 19.16468 1815 ft 156 kts 264°
2026-05-05 22:11 50.47579 19.14762 1609 ft 157 kts 265°
2026-05-05 22:11 50.47583 19.13055 1402 ft 157 kts 266°
2026-05-05 22:11 50.47600 19.11346 1189 ft 156 kts 266°
2026-05-05 22:11 50.47597 19.09657 1006 ft 151 kts 266°
2026-05-05 22:12 50.47595 19.08219 981 ft 101 kts 269°
2026-05-05 22:12 50.47597 19.07445 978 ft 43 kts 270°
2026-05-05 22:12 50.47583 19.07163 975 ft 22 kts 260°
2026-05-05 22:12 50.47526 19.06955 976 ft 18 kts 239°
2026-05-05 22:13 50.47463 19.06784 974 ft 17 kts 240°
2026-05-05 22:13 50.47398 19.06637 976 ft 14 kts 204°
2026-05-05 22:13 50.47297 19.06627 977 ft 14 kts 179°
2026-05-05 22:13 50.47240 19.06721 978 ft 14 kts 98°
2026-05-05 22:14 50.47238 19.06879 979 ft 17 kts 91°
2026-05-05 22:14 50.47236 19.07091 981 ft 19 kts 91°
2026-05-05 22:14 50.47236 19.07296 982 ft 17 kts 91°
2026-05-05 22:14 50.47236 19.07484 983 ft 16 kts 89°
2026-05-05 22:15 50.47236 19.07652 983 ft 10 kts 90°
2026-05-05 22:15 50.47219 19.07693 983 ft 4 kts 170°
2026-05-05 22:15 50.47189 19.07694 983 ft 3 kts 181°
2026-05-05 22:15 50.47156 19.07694 984 ft 5 kts 179°
2026-05-05 22:16 50.47149 19.07694 984 ft 0 kts 179°